Regional Weather Roundup
Issued by NWS Upton, NY

Current Version | Previous Version | Text Only | Print | Product List | Glossary Off
Versions: 1 2 3 4 5 6 7 8 9 10 11 12 13 14 15 16 17 18 19 20 21 22 23 24 25 26 27 28 29 30 31 32 33 34 35 36 37 38 39 40 41 42 43 44 45 46 47 48 49 50
000 ASUS41 KOKX 241805 RWROKX REGIONAL WEATHER ROUNDUP NATIONAL WEATHER SERVICE NEW YORK NY 200 PM EDT THU JUL 24 2014 NOTE: "FAIR" INDICATES FEW OR NO CLOUDS BELOW 12,000 FEET WITH NO SIGNIFICANT WEATHER AND/OR OBSTRUCTIONS TO VISIBILITY. NYZ071-072-176-178-NJZ106-104-241900- NEW YORK CITY METRO AREA CITY SKY/WX TMP DP RH WIND PRES REMARKS CENTRAL PARK CLOUDY 77 61 57 NE6 29.90S LAGUARDIA APRT CLOUDY 76 59 55 N10 29.86S KENNEDY INTL CLOUDY 78 60 53 N12 29.87S NEWARK/LIBERTY CLOUDY 78 60 53 N10 29.87S BRNX BOT. GARD N/A 75 59 57 W5 29.87 TETERBORO CLOUDY 80 58 46 N9 29.85F $$ NYZ177-179-078>081-241900- LONG ISLAND NEW YORK CITY SKY/WX TMP DP RH WIND PRES REMARKS FARMINGDALE CLOUDY 77 60 55 N12 29.86S ISLIP CLOUDY 79 60 52 NW13 29.83S SHIRLEY CLOUDY 79 62 56 NW10 29.85S WESTHAMPTON CLOUDY 80 62 54 NW9 29.85S MONTAUK POINT N/A 76 66 71 NW6 29.84R $$ NYZ052-065-067-241900- HUDSON VALLEY CITY SKY/WX TMP DP RH WIND PRES REMARKS WHITE PLAINS CLOUDY 75 57 53 N13G21 29.87F NEWBURGH PTSUNNY 75 61 60 N7 29.90 MONTGOMERY MOSUNNY 78 60 53 NE7 29.88F POUGHKEEPSIE MOSUNNY 78 58 49 VRB7 29.87F ALBANY PTSUNNY 75 59 57 NW7 29.90F $$ NJZ001-105-106-008-010-013-015-019>022-104-241900- NEW JERSEY CITY SKY/WX TMP DP RH WIND PRES REMARKS NEWARK/LIBERTY CLOUDY 78 60 53 N10 29.87S TETERBORO CLOUDY 80 58 46 N9 29.85F CALDWELL PTSUNNY 77 59 53 VRB6 29.88F MORRISTOWN MOSUNNY 77 63 61 N9 29.88F SOMERVILLE PTSUNNY 80 58 46 N10 29.86F LINDEN CLOUDY 79 62 56 N5 29.88F SUSSEX MOSUNNY 81 58 45 CALM 29.88F ANDOVER N/A 76 56 49 N6 29.89F TRENTON CLOUDY 78 58 49 N9 29.87F MILLVILLE CLOUDY 78 64 61 N3 29.88F ATLANTIC CITY CLOUDY 77 66 68 N8 29.87F WRIGHTSTOWN CLOUDY 78 63 59 NW9 29.86F TOMS RIVER CLOUDY 79 64 61 NW8 29.87F BELMAR CLOUDY 77 63 61 NW7 29.87S $$ PAZ047>061-062-071-241900- EASTERN PENNSYLVANIA CITY SKY/WX TMP DP RH WIND PRES REMARKS PHILADELPHIA PTSUNNY 80 57 45 N13 29.88F ALLENTOWN MOSUNNY 79 55 43 N10 29.89F SCRANTON PTSUNNY 76 49 38 N13G20 29.94F $$ CTZ002-004>006-009-010-012-RIZ004-006-007-MAZ004-011-015-241900- SOUTHERN NEW ENGLAND IN CT CITY SKY/WX TMP DP RH WIND PRES REMARKS BRADLEY INTL PTSUNNY 80 57 45 N12 29.83F HARTFORD CLOUDY 79 56 45 N10 29.82F DANBURY PTSUNNY 75 55 49 N9G22 29.89S WTRBRY/OXFORD MOSUNNY 73 59 60 NW9 29.89S BRIDGEPORT CLOUDY 80 59 48 NW10G20 29.84S MERIDEN CLOUDY 79 60 52 N10 29.83F NEW HAVEN CLOUDY 81 62 52 NW5 29.83S CHESTER FAIR 77 61 57 N6 29.85S GROTON PTSUNNY 80 65 59 N6 29.81F WILLIMANTIC PTSUNNY 80 61 52 VRB6 29.82F IN RI CITY SKY/WX TMP DP RH WIND PRES REMARKS PROVIDENCE PTSUNNY 78 64 61 NE9 29.82F BLOCK ISLAND PTSUNNY 77 66 69 W6 29.83R WESTERLY PTSUNNY 82 66 58 VRB5 29.82S IN MA CITY SKY/WX TMP DP RH WIND PRES REMARKS BOSTON PTSUNNY 70 63 78 E13 29.84S WORCESTER MOSUNNY 76 58 53 N9 29.86F WESTFIELD MOSUNNY 80 57 45 N10 29.84F PROVINCETOWN CLOUDY 66 64 94 N9 29.83F NANTUCKET CLOUDY 75 68 78 N15 29.79F $$ ANZ330-335-338-340-345-350-353-355-241900- COASTAL MARINE OBSERVATIONS STATION/POSITION TIME SKY/WX TEMP WIND PRES VSBY WAVE AIR SEA DIR/SP/G HT/PER (UTC) (F) (DEG/KT/KT) (MB) (MI) (FT/S) NY HARB ENTRANCE NOT AVBL 4S FIRE IS NOT AVBL 23SW MTP 1800 72 71 1009.5 2/ 8 HUDSON CANYON 1800 73 74 320/ 8/ 10 1010.8 3/ 8 EXECUTION ROCKS 1800 76 72 10/ 10/ 12 N/A WESTERN LI SOUND 1800 75 350/ 12/ 14 N/A 1 CENTRAL LI SOUND 1800 75 73 310/ 6/ 8 N/A 1 EASTERN LI SOUND 1700 75 67 350/ 8/ 10 N/A ROBBINS REEF 1800 75 10/ 11/ 13 N/A $$ >>>>>>>>>>>>>>>>>>>>>>>>>>>> KEY <<<<<<<<<<<<<<<<<<<<<<<<<<< > < > SKY/WX - SKY CONDITION/PRESENT WEATHER < > TMP - TEMPERATURE IN FAHRENHEIT < > DP - DEWPOINT IN FAHRENHEIT < > RH - RELATIVE HUMIDITY IN PERCENT < > WIND - DIRECTION AND SPEED IN MPH < > PRES - MEAN SEA LEVEL PRESSURE IN INCHES OF HG < > WCI - WIND CHILL INDEX < > VSB - VISIBILITY IN MILES < > HX - HEAT INDEX < > TC - TEMPERATURE IN CELSIUS < > VRB - VARIABLE WIND DIRECTION < > < >>>>>>>>>>>>>>>>>>>>>>>>>>>> KEY <<<<<<<<<<<<<<<<<<<<<<<<<<<

USA.gov is the U.S. government's official web portal to all federal, state and local government web resources and services.